Dewpoint
51 52 52 52 52 52 52 52 52 52 52 53 53 52 53 53 53 54 54 55 56 56 57 57 58 60 60 61 61 62 63 63 63 62 62 62 63 63 63 62 62 62 62 62 63 62 62 63 62 62 63 63 63 64 64 63 63 62 63 63 61 60 61 59 58 57 60 62 58 54 53 54 52 50 47 46 48 47 47 50 56 56 55 56 55
49 50 51 52 51 52 51 51 51 51 52 52 52 51 51 52 52 52 52 53 54 54 55 56 57 58 59 61 62 61 62 62 63 62 62 62 62 62 62 62 61 62 62 62 62 62 62 61 62 62 63 62 62 63 64 63 63 63 62 62 61 60 62 61 60 58 57 59 57 59 53 53 52 50 47 46 44 43 39 47 56 54 53 55 55
48 49 50 50 51 51 50 50 50 50 50 50 50 50 51 51 51 51 50 51 52 52 54 55 56 57 58 59 62 60 62 62 63 63 62 62 61 61 62 62 61 61 62 62 63 62 62 61 61 61 62 61 62 62 63 63 63 63 62 62 62 61 62 62 60 57 57 58 58 55 54 53 53 52 49 47 44 40 37 52 55 52 49 50 54
47 48 49 50 50 50 49 50 50 49 49 49 50 50 50 50 50 50 49 50 50 51 52 52 53 54 56 58 60 61 61 61 62 62 61 61 62 62 62 63 62 62 62 62 62 62 61 61 61 62 62 61 61 62 62 63 64 63 62 62 62 62 61 60 59 57 56 56 56 53 55 54 53 52 50 47 43 40 37 49 54 53 51 50 49
46 47 48 48 49 48 49 49 49 49 49 49 49 48 49 48 49 48 48 48 48 49 49 50 51 52 54 56 59 60 62 61 61 61 62 62 62 62 61 61 62 61 61 61 61 62 62 61 62 62 62 61 61 61 62 62 62 63 62 62 62 62 61 61 61 62 60 57 55 55 56 55 54 54 55 46 45 43 39 37 50 47 48 50 49
45 46 47 47 47 47 48 48 48 48 48 48 48 47 48 47 47 48 47 46 47 48 47 47 49 50 52 54 56 59 60 60 57 55 57 61 62 62 61 61 62 61 61 61 61 61 62 61 61 61 62 60 60 61 62 61 62 62 62 62 61 62 61 62 62 61 61 59 56 54 55 55 53 54 57 49 48 45 41 34 41 47 45 45 44
45 45 46 47 46 47 47 47 47 47 47 47 47 46 46 47 46 46 46 46 46 46 46 46 47 48 49 51 55 51 47 46 46 46 47 51 57 61 61 61 61 62 62 62 61 61 61 61 61 62 62 61 61 61 61 61 61 61 61 61 61 61 61 61 61 61 59 59 57 55 53 54 55 56 53 50 50 48 44 38 36 37 44 43 43
44 44 45 45 45 46 46 47 46 46 46 46 46 46 46 45 45 45 46 45 45 45 45 45 45 46 46 47 52 50 46 44 43 42 43 45 49 54 61 61 62 61 61 61 61 61 61 61 60 61 62 61 60 61 61 61 61 61 62 62 62 61 60 60 60 60 59 59 58 57 58 54 55 54 54 52 47 47 44 39 38 37 42 46 42
43 42 44 44 44 45 46 46 46 45 45 45 45 45 45 45 45 44 44 44 46 44 44 44 44 44 44 45 47 49 45 44 43 41 41 42 44 49 53 59 61 60 60 60 61 61 61 60 61 62 62 61 58 58 59 59 61 61 61 62 62 61 60 60 59 59 58 58 58 57 56 54 53 53 51 48 44 45 46 41 41 41 41 45 42
42 42 42 42 43 43 43 44 44 44 44 44 44 45 44 45 44 44 43 44 43 44 43 44 43 43 44 44 45 48 44 42 43 41 41 41 42 44 48 54 59 61 61 61 61 61 62 61 61 60 59 58 56 54 53 54 56 61 62 61 62 61 59 59 59 59 58 57 58 57 56 55 54 50 48 46 46 46 46 44 42 42 44 43 43
42 41 40 40 41 41 42 42 43 42 43 43 44 43 43 44 44 44 45 44 44 43 43 43 43 43 43 43 44 46 44 42 40 38 38 39 41 41 44 50 55 59 61 60 60 60 61 62 62 61 59 57 57 51 50 50 50 51 54 56 59 61 60 59 58 60 59 58 58 57 57 56 56 52 44 44 50 46 46 45 44 44 43 44 41
39 39 39 40 39 39 41 41 41 42 42 41 42 42 43 43 43 43 44 44 44 43 43 43 43 43 43 42 43 45 44 42 39 39 38 38 39 41 42 47 53 57 59 60 61 60 60 61 62 62 61 60 61 58 53 49 48 48 49 51 51 52 54 58 59 59 59 58 58 57 57 56 55 56 47 47 51 48 48 46 44 43 41 43 43
38 38 38 38 38 40 39 39 40 40 40 41 42 42 42 42 42 43 43 44 44 44 43 43 43 43 43 42 43 43 43 40 39 39 38 38 38 39 42 46 52 55 57 59 60 61 61 61 61 61 63 59 61 61 60 58 50 47 49 49 49 48 48 49 53 59 60 59 58 58 57 57 56 56 60 58 60 49 49 48 47 46 46 43 44
38 37 37 37 38 38 38 38 39 39 40 40 41 40 41 41 42 42 43 42 43 43 43 44 43 43 43 42 43 43 43 41 39 39 39 38 38 38 42 47 52 55 57 58 59 60 60 59 59 60 61 61 61 62 61 61 58 54 54 55 56 52 46 47 47 51 56 59 59 59 59 58 57 56 59 60 57 56 52 48 51 49 48 48 50
37 37 37 36 37 38 37 37 38 39 39 39 40 39 41 41 41 41 41 41 42 42 42 42 43 43 43 43 42 43 43 40 39 38 38 38 38 39 44 49 53 55 57 58 59 60 60 60 60 60 61 61 61 60 61 61 61 58 57 58 59 57 56 55 56 58 60 61 60 60 60 61 60 59 60 61 61 61 60 57 58 59 59 59 55
35 36 35 36 36 36 37 37 38 37 38 38 38 38 40 40 40 41 41 41 41 41 41 42 41 41 42 43 42 42 42 39 38 38 38 38 38 41 42 47 52 54 56 58 59 60 61 61 60 60 60 60 57 51 53 60 61 60 59 59 59 59 54 47 43 52 58 60 61 61 61 60 56 60 61 60 60 60 60 60 58 59 56 54 52
34 35 35 34 35 35 36 36 37 37 37 37 37 38 39 39 40 41 40 40 40 40 40 41 40 40 40 41 41 41 40 40 38 38 38 38 39 40 43 47 50 52 53 54 57 60 60 60 60 59 60 60 53 48 48 50 59 59 59 59 59 57 50 48 41 40 42 48 52 51 48 51 51 51 50 52 57 58 58 57 56 57 53 51 50
33 34 34 34 34 34 34 35 35 36 36 37 37 37 37 38 39 40 39 39 39 39 40 39 39 40 40 40 40 40 40 40 38 38 38 38 39 40 42 43 45 47 50 52 54 58 60 59 57 59 60 59 51 46 46 50 58 59 59 59 58 53 51 51 50 46 40 41 42 42 41 42 42 44 46 48 50 53 57 56 56 56 54 53 52
33 33 33 32 33 34 35 35 35 35 35 37 37 36 36 37 38 38 39 38 38 39 39 38 39 39 39 40 41 40 40 40 38 38 38 38 39 40 41 41 42 44 49 47 48 49 50 49 46 42 42 43 40 43 43 49 57 59 60 59 57 52 52 52 51 51 51 50 50 51 51 51 53 53 50 47 49 54 58 57 56 55 54 54 54
31 32 32 33 33 34 35 35 36 34 34 36 37 36 35 34 36 37 37 36 37 38 38 38 38 38 39 39 39 40 40 39 39 38 38 38 38 40 41 41 40 42 44 44 45 46 46 46 44 39 37 38 39 41 43 44 55 59 58 57 56 55 54 53 53 53 53 53 52 52 52 52 53 53 53 53 53 53 53 54 55 54 53 54 53
33 33 32 32 31 32 35 35 36 36 34 35 37 36 34 34 35 36 36 37 37 38 39 39 39 39 39 39 39 39 40 39 39 38 38 38 38 38 39 40 40 41 41 41 42 42 42 43 42 39 37 37 37 38 41 43 44 54 57 56 57 55 52 54 52 50 54 53 53 53 53 54 53 53 53 52 49 49 48 48 51 53 53 53 52
33 30 31 30 30 33 36 37 37 37 36 35 35 35 35 34 34 35 35 36 36 36 37 38 38 38 38 38 39 39 39 40 38 38 37 38 38 38 39 39 39 42 40 40 40 40 40 41 41 39 37 37 37 38 39 39 43 52 51 48 47 45 54 54 54 53 52 52 52 52 52 52 49 49 48 46 46 46 46 45 45 45 45 50 50
30 31 32 31 34 32 37 38 37 37 36 34 33 35 35 34 34 34 35 35 35 35 36 37 38 37 37 37 38 38 39 39 38 38 38 37 37 37 37 38 37 42 41 39 39 39 40 40 40 39 37 37 37 37 38 39 41 42 39 41 43 45 50 54 52 53 52 51 49 49 49 47 45 45 45 45 45 44 44 44 44 43 43 44 47
31 32 33 32 34 31 30 35 37 36 35 34 33 35 35 34 33 33 34 33 33 33 33 35 36 36 35 36 37 38 38 38 39 38 38 37 37 37 37 37 37 39 41 40 40 40 39 39 38 37 37 37 37 37 37 38 39 38 39 40 41 43 50 51 52 50 45 45 45 43 41 41 41 42 43 44 43 44 44 44 43 43 42 42 42
33 32 30 29 32 28 31 32 35 35 35 33 33 33 35 34 33 32 32 32 32 31 31 33 34 35 34 35 35 36 38 38 38 38 37 37 37 37 37 37 37 37 40 40 39 39 37 36 36 36 37 37 37 38 39 38 37 38 39 40 43 45 45 45 45 45 44 43 42 40 40 40 42 43 44 43 43 42 42 42 42 42 42 41 41
32 30 28 30 30 25 29 29 31 36 36 33 34 34 35 34 33 32 31 31 31 31 29 29 30 32 34 33 33 34 36 36 37 37 38 38 38 37 37 37 38 37 38 39 37 37 36 36 36 36 37 37 39 39 39 39 38 38 39 41 43 44 43 43 42 42 41 41 41 41 40 41 41 41 41 42 41 41 40 40 40 40 40 39 39
33 32 32 29 31 30 31 31 31 34 36 35 34 34 34 35 35 33 32 30 30 30 30 30 30 30 33 33 33 32 33 34 36 36 37 37 38 39 39 38 38 38 38 39 39 39 38 37 36 36 36 36 36 37 37 37 38 39 41 41 41 42 42 42 41 41 40 40 40 41 41 41 40 39 39 39 40 41 40 39 39 39 39 38 38
30 29 29 30 30 28 30 29 30 30 36 36 35 35 35 36 35 34 33 31 31 31 31 31 31 31 32 33 32 32 32 33 35 36 36 36 36 38 38 39 38 38 37 38 39 38 37 36 36 37 37 36 37 37 37 37 37 36 38 39 39 40 40 39 40 40 41 41 41 41 40 41 41 40 40 40 41 41 41 40 39 39 39 38 38
34 31 31 30 30 32 32 29 29 30 34 37 36 36 36 37 37 36 35 34 34 34 32 32 32 31 31 32 32 32 33 34 34 34 34 34 35 36 37 38 38 38 36 35 38 37 36 36 35 35 35 33 33 34 35 35 35 36 35 36 38 38 38 38 38 38 39 39 39 39 39 40 40 41 41 41 41 42 42 42 42 41 40 39 39
33 33 30 30 30 30 33 29 29 30 30 33 37 35 34 35 37 38 34 34 34 34 33 33 34 33 32 33 35 33 33 34 34 34 34 34 35 35 35 35 35 37 35 35 37 35 35 34 34 33 33 33 33 33 33 33 33 34 34 34 35 35 36 36 37 37 36 36 37 36 37 37 38 39 39 39 40 40 40 39 40 40 39 38 37
31 31 32 32 32 31 32 31 30 28 30 32 32 34 36 34 34 34 35 35 34 33 33 34 34 34 34 33 34 34 33 33 33 34 34 34 34 34 35 35 36 36 35 34 35 34 34 33 33 33 33 33 33 33 33 33 33 33 33 34 34 34 34 34 35 34 34 34 34 35 35 37 36 37 37 37 38 40 39 40 41 42 40 40 39
32 32 31 32 36 32 31 31 30 32 30 30 29 30 28 31 38 33 34 34 34 34 34 34 34 34 34 34 34 34 33 33 33 33 33 34 34 34 34 35 36 36 36 35 35 35 35 34 34 33 33 33 33 33 33 33 33 33 33 33 33 33 33 33 34 35 34 34 33 33 34 35 36 35 36 35 34 37 38 35 37 35 37 39 39
35 34 31 30 32 30 29 32 32 30 31 30 32 29 27 27 26 29 36 34 34 35 34 35 34 34 34 34 34 33 33 33 33 33 33 33 33 34 34 35 36 36 36 36 35 35 36 36 35 35 34 33 33 33 33 33 33 33 33 33 33 33 34 34 34 34 34 34 34 34 34 34 34 33 33 33 33 33 34 34 36 36 36 33 33
35 34 34 33 33 32 33 34 33 32 30 30 29 28 29 31 28 30 28 30 37 35 34 32 33 34 34 34 34 33 33 33 33 33 33 33 34 34 34 35 35 35 35 35 36 36 37 37 37 36 36 35 35 34 34 34 34 34 34 34 34 34 34 36 35 34 34 34 34 33 33 34 33 33 33 33 34 33 33 33 34 33 33 33 33
35 32 31 33 34 33 31 31 31 32 31 33 28 29 32 31 29 29 27 28 28 28 28 34 33 33 33 33 33 33 33 33 33 33 33 34 34 34 34 35 33 34 35 35 35 36 36 38 37 37 37 36 36 35 36 36 36 35 35 34 34 35 34 34 34 35 34 34 33 33 33 34 34 33 32 32 32 31 31 32 32 33 32 31 30
33 29 31 30 32 34 32 35 30 33 33 31 32 31 29 29 28 28 29 28 29 28 28 29 30 32 32 34 34 34 33 33 33 33 33 34 34 33 33 32 33 33 33 34 34 35 36 36 36 37 38 38 37 37 37 37 36 36 36 35 34 34 34 34 33 33 32 33 32 32 32 32 33 32 32 32 32 31 31 31 30 30 30 29 30
34 32 31 28 33 35 34 32 33 30 31 30 29 28 30 28 29 29 29 28 29 29 28 28 31 32 31 32 34 33 33 33 33 33 33 34 34 34 34 33 33 33 34 34 34 34 34 35 35 35 36 36 37 37 37 37 37 36 36 36 35 34 33 33 32 31 31 31 31 31 31 31 31 30 30 29 29 29 29 29 29 29 28 27 29
36 32 30 34 34 36 35 31 32 29 32 29 30 28 28 28 30 29 30 30 29 30 28 28 31 30 29 29 35 34 32 33 33 33 33 34 33 34 34 34 33 33 35 34 34 35 34 34 34 34 33 34 34 34 34 34 34 34 33 34 32 32 32 32 32 32 30 30 30 30 30 30 29 29 30 30 29 29 28 28 27 28 29 29 28
36 31 31 30 31 32 30 29 30 31 30 29 28 29 30 30 31 30 30 29 30 30 28 28 30 31 30 30 31 34 32 31 31 31 32 32 33 33 34 33 34 33 33 32 32 32 33 33 33 33 33 33 32 33 34 33 33 33 33 32 32 32 31 30 30 30 29 29 29 29 29 29 28 29 29 29 29 28 28 28 29 28 27 27 27
34 33 33 29 30 30 31 29 32 30 31 29 30 29 29 29 29 29 30 29 32 29 29 29 30 31 31 31 31 32 30 30 31 31 32 32 32 33 33 33 33 33 32 31 31 31 31 31 32 32 32 32 32 32 32 33 31 31 31 30 30 29 29 29 29 29 28 28 28 28 27 27 27 28 28 28 26 26 26 26 26 28 27 26 26
31 31 29 28 27 29 26 28 28 25 27 30 35 33 34 33 31 30 29 29 29 28 32 30 30 33 34 31 32 32 30 30 29 31 31 32 32 32 33 32 32 32 33 32 32 31 31 31 31 31 31 31 32 32 32 31 30 29 29 29 28 28 28 28 28 28 28 27 26 26 27 28 28 28 26 25 28 27 25 25 25 25 27 26 27
32 31 31 29 29 29 24 25 29 27 28 34 35 34 30 31 32 33 30 28 27 28 29 32 33 31 31 31 31 32 32 29 30 30 32 32 32 32 32 32 32 33 32 33 32 32 32 32 32 32 32 32 31 31 30 30 29 29 28 27 27 27 28 27 27 28 27 27 28 28 28 26 27 27 27 29 27 27 27 27 26 27 26 26 27
32 29 29 27 27 26 26 26 26 27 26 26 26 25 27 29 31 30 31 29 28 29 29 30 33 33 34 31 32 31 30 30 29 30 31 31 32 32 32 32 33 33 33 33 33 33 32 32 32 32 32 31 32 31 30 29 29 28 27 26 25 26 27 27 27 27 27 27 26 27 28 27 26 26 27 27 27 27 26 27 27 27 27 28 28
29 28 27 28 26 27 28 26 25 29 29 25 25 27 28 28 30 32 30 30 29 29 28 31 30 32 32 34 33 32 30 30 29 30 33 31 32 32 33 32 32 33 33 33 32 32 31 32 31 31 33 32 32 33 31 30 30 29 28 27 27 28 28 27 27 28 28 28 28 27 27 27 27 26 26 26 26 26 27 27 27 27 26 26 28
30 28 26 24 29 27 25 31 25 26 24 26 31 27 27 27 32 31 30 33 29 30 29 30 30 31 31 34 34 33 31 30 30 29 30 31 31 32 31 32 32 33 32 32 32 33 32 31 31 31 31 31 30 31 30 31 31 30 30 30 28 28 28 28 28 28 29 29 28 28 27 26 26 27 26 26 27 26 26 26 26 27 27 27 27
28 30 26 25 25 26 26 28 28 29 25 28 27 31 30 29 27 30 31 30 30 30 33 32 33 30 32 34 32 31 32 34 31 30 29 30 31 31 30 30 30 32 32 32 32 32 31 31 31 30 30 30 31 31 31 31 30 30 31 31 30 30 30 30 30 30 29 29 28 27 26 27 27 26 26 25 25 25 25 24 26 24 23 24 25
34 29 37 25 26 25 26 34 30 29 25 30 27 25 27 30 32 31 29 31 31 30 31 33 32 32 33 33 31 33 34 32 32 30 31 32 32 32 30 30 29 30 32 32 32 30 30 31 31 31 31 31 30 31 30 29 29 29 30 30 30 30 30 30 30 29 30 30 29 27 27 25 25 25 26 25 24 24 25 24 19 19 21 22 23
27 28 25 26 26 24 26 31 29 25 28 25 25 24 24 26 29 30 30 32 30 28 28 32 32 33 32 32 32 32 34 32 33 33 30 30 30 30 31 31 29 29 30 31 28 27 29 30 31 30 31 30 30 30 30 30 29 29 28 27 27 28 28 28 27 27 28 30 29 30 27 26 25 25 26 23 21 22 23 22 23 23 24 24 24
22 30 25 26 24 25 24 24 30 26 27 29 25 24 24 25 26 28 31 28 29 28 28 28 29 33 35 33 34 32 32 31 33 33 31 31 32 33 31 31 30 30 29 27 29 29 30 29 29 29 29 29 28 29 30 29 28 27 26 25 26 27 27 27 26 26 27 29 29 29 29 26 26 26 25 24 21 17 15 17 20 21 24 25 24
31 27 25 28 24 32 31 27 27 24 29 26 25 25 26 26 27 28 26 26 27 31 33 31 29 32 34 34 34 34 33 33 31 33 33 31 31 32 31 32 31 30 30 29 28 30 30 29 30 30 29 28 28 29 29 28 27 25 24 25 25 26 26 26 26 27 25 26 28 29 29 28 26 24 24 24 24 23 20 18 22 22 22 22 23
25 26 25 31 27 25 24 27 31 25 34 27 30 27 27 28 29 26 25 27 26 25 27 28 29 29 29 33 32 34 33 34 33 33 33 33 33 33 31 32 30 29 30 31 29 29 28 28 29 28 27 27 28 29 28 26 25 24 25 24 25 25 25 25 25 25 25 24 26 28 28 28 27 26 24 23 23 22 24 24 21 17 18 18 23